Tracking 35274 objects as of 10-Sep-2026
HD Live streaming from Space Station
objects crossing your sky now

STARLINK-11451

Track STARLINK-11451 now!
10-day predictions
STARLINK-11451 is classified as:


NORAD ID: 62561
Int'l Code: 2025-006H
Launch date: January 10, 2025
Source: United States (US)
Launch site: AIR FORCE EASTERN TEST RANGE (AFETR)
Your satellite tracking list
Your tracking list is empty




NASA's NSSDC Master Catalog

Two Line Element Set (TLE):
1 62561U 25006H   26251.99282228  .00185813  00000-0  14149-2 0  9998
2 62561  43.0026 114.7891 0003200 276.9375  83.1128 15.70913417 95434
Source of the keplerian elements: AFSPC